When you browse on this site, cookies collect data to enhance your experience and personalize the content and advertising you see.
Visit our Privacy Policy to learn more. By continuing to use the site, you agree to this use of cookies and data.
  • En España
  • Lista de países
  • Para 7 días
  • Temperatura del agua
  • El tiempo en el mapa
  • Informadores
  • user-avatar
    Iniciar sesión

    Tiempo cada hora Offenbach am Mein

    Hoy, 4 Junio, Jueves

    Tiempo Temperatura Precipitaciones Viento Presión Humedad
    00:00 +18°C° 0.3 mm 1 mps 739 mmHg 84%
    01:00 +18°C° 0 mm 1 mps 740 mmHg 83%
    02:00 +16°C° 0.5 mm 1 mps 739 mmHg 84%
    03:00 +16°C° 0.5 mm 1 mps 738 mmHg 86%
    04:00 +16°C° 0.5 mm 1 mps 738 mmHg 87%
    05:00 +18°C° 0.2 mm 1 mps 738 mmHg 86%
    06:00 +18°C° 0.2 mm 1 mps 737 mmHg 85%
    07:00 +18°C° 0 mm 1 mps 737 mmHg 82%
    08:00 +19°C° 0.2 mm 1 mps 737 mmHg 80%
    09:00 +18°C° 0.2 mm 2 mps 737 mmHg 79%
    10:00 +19°C° 0.2 mm 2 mps 737 mmHg 77%
    11:00 +19°C° 1 mm 2 mps 737 mmHg 78%
    12:00 +19°C° 1 mm 3 mps 737 mmHg 78%
    13:00 +18°C° 1 mm 3 mps 736 mmHg 79%
    14:00 +19°C° 0.6 mm 3 mps 736 mmHg 76%
    15:00 +19°C° 0.6 mm 3 mps 736 mmHg 74%
    16:00 +19°C° 0.6 mm 3 mps 736 mmHg 72%
    17:00 +18°C° 0.3 mm 3 mps 736 mmHg 73%
    18:00 +18°C° 0.3 mm 3 mps 736 mmHg 75%
    19:00 +17°C° 0.3 mm 3 mps 736 mmHg 76%
    20:00 +16°C° 0 mm 3 mps 736 mmHg 78%
    21:00 +14°C° 0 mm 3 mps 737 mmHg 79%
    22:00 +13°C° 0 mm 3 mps 737 mmHg 81%
    23:00 +12°C° 0 mm 3 mps 737 mmHg 82%

    Mañana, 5 Junio, Viernes

    Tiempo Temperatura Precipitaciones Viento Presión Humedad
    00:00 +12°C° 0 mm 3 mps 738 mmHg 83%
    01:00 +13°C° 0 mm 2 mps 738 mmHg 84%
    02:00 +12°C° 0 mm 2 mps 738 mmHg 84%
    03:00 +10°C° 0 mm 2 mps 738 mmHg 85%
    04:00 +10°C° 0 mm 2 mps 739 mmHg 85%
    05:00 +10°C° 0 mm 2 mps 739 mmHg 81%
    06:00 +12°C° 0 mm 2 mps 739 mmHg 77%
    07:00 +12°C° 0 mm 2 mps 739 mmHg 73%
    08:00 +13°C° 0.1 mm 3 mps 739 mmHg 67%
    09:00 +14°C° 0.1 mm 4 mps 739 mmHg 60%
    10:00 +15°C° 0.1 mm 4 mps 738 mmHg 54%
    11:00 +16°C° 0.2 mm 5 mps 738 mmHg 54%
    12:00 +16°C° 0.2 mm 6 mps 737 mmHg 53%
    13:00 +17°C° 0.2 mm 7 mps 737 mmHg 53%
    14:00 +15°C° 0.6 mm 7 mps 737 mmHg 63%
    15:00 +14°C° 0.6 mm 7 mps 737 mmHg 73%
    16:00 +11°C° 0.6 mm 7 mps 737 mmHg 83%
    17:00 +11°C° 0.6 mm 6 mps 737 mmHg 83%
    18:00 +11°C° 0.6 mm 6 mps 737 mmHg 82%
    19:00 +12°C° 0.6 mm 5 mps 737 mmHg 82%
    20:00 +12°C° 0.3 mm 5 mps 738 mmHg 81%
    21:00 +10°C° 0.3 mm 5 mps 739 mmHg 80%
    22:00 +10°C° 0.3 mm 5 mps 739 mmHg 79%
    23:00 +9°C° 0 mm 5 mps 740 mmHg 79%

    Pasado mañana, 6 Junio, Sábado

    Tiempo Temperatura Precipitaciones Viento Presión Humedad
    00:00 +10°C° 0 mm 4 mps 740 mmHg 79%
    01:00 +8°C° 0 mm 4 mps 741 mmHg 79%
    02:00 +8°C° 0 mm 4 mps 741 mmHg 80%
    03:00 +8°C° 0 mm 3 mps 741 mmHg 81%
    04:00 +8°C° 0 mm 3 mps 741 mmHg 81%
    05:00 +9°C° 0.1 mm 3 mps 741 mmHg 80%
    06:00 +10°C° 0.1 mm 4 mps 741 mmHg 78%
    07:00 +10°C° 0.1 mm 4 mps 741 mmHg 77%
    08:00 +11°C° 0.4 mm 4 mps 741 mmHg 77%
    09:00 +11°C° 0.4 mm 4 mps 741 mmHg 78%
    10:00 +11°C° 0.4 mm 3 mps 741 mmHg 79%
    11:00 +12°C° 0.1 mm 4 mps 741 mmHg 73%
    12:00 +14°C° 0.1 mm 4 mps 741 mmHg 67%
    13:00 +15°C° 0.1 mm 5 mps 741 mmHg 61%
    14:00 +16°C° 0.2 mm 5 mps 741 mmHg 56%
    15:00 +17°C° 0.2 mm 6 mps 741 mmHg 51%
    16:00 +19°C° 0.2 mm 6 mps 741 mmHg 46%
    17:00 +17°C° 0 mm 5 mps 741 mmHg 48%
    18:00 +16°C° 0 mm 5 mps 742 mmHg 51%
    19:00 +17°C° 0 mm 4 mps 742 mmHg 53%
    20:00 +15°C° 0 mm 4 mps 742 mmHg 55%
    21:00 +13°C° 0 mm 4 mps 743 mmHg 58%
    22:00 +12°C° 0 mm 3 mps 744 mmHg 60%
    23:00 +12°C° 0 mm 3 mps 744 mmHg 61%

    7 Junio, Domingo

    Tiempo Temperatura Precipitaciones Viento Presión Humedad
    00:00 +11°C° 0 mm 3 mps 744 mmHg 63%
    01:00 +10°C° 0 mm 3 mps 745 mmHg 64%
    02:00 +10°C° 0 mm 3 mps 745 mmHg 68%
    03:00 +9°C° 0 mm 3 mps 745 mmHg 72%
    04:00 +9°C° 0 mm 3 mps 745 mmHg 76%
    05:00 +10°C° 0 mm 3 mps 746 mmHg 73%
    06:00 +11°C° 0 mm 4 mps 746 mmHg 71%
    07:00 +11°C° 0 mm 4 mps 746 mmHg 69%
    08:00 +13°C° 0 mm 4 mps 746 mmHg 64%
    09:00 +14°C° 0 mm 4 mps 747 mmHg 59%
    10:00 +17°C° 0 mm 4 mps 747 mmHg 54%
    11:00 +17°C° 0 mm 3 mps 747 mmHg 53%
    12:00 +18°C° 0 mm 3 mps 747 mmHg 52%
    13:00 +19°C° 0 mm 3 mps 747 mmHg 51%
    14:00 +19°C° 0 mm 3 mps 746 mmHg 50%
    15:00 +19°C° 0 mm 2 mps 746 mmHg 49%
    16:00 +20°C° 0 mm 2 mps 746 mmHg 48%
    17:00 +19°C° 0 mm 2 mps 746 mmHg 52%
    18:00 +19°C° 0 mm 2 mps 746 mmHg 55%
    19:00 +19°C° 0 mm 1 mps 746 mmHg 58%
    20:00 +18°C° 0 mm 1 mps 747 mmHg 62%
    21:00 +16°C° 0 mm 1 mps 747 mmHg 65%
    22:00 +14°C° 0 mm 1 mps 748 mmHg 68%
    23:00 +13°C° 0 mm 0 mps 748 mmHg 69%

    8 Junio, Lunes

    Tiempo Temperatura Precipitaciones Viento Presión Humedad
    00:00 +13°C° 0 mm 0 mps 748 mmHg 70%
    01:00 +12°C° 0 mm 0 mps 747 mmHg 72%
    02:00 +12°C° 0 mm 0 mps 747 mmHg 73%
    03:00 +12°C° 0 mm 0 mps 747 mmHg 74%
    04:00 +12°C° 0 mm 0 mps 748 mmHg 75%
    05:00 +13°C° 0 mm 0 mps 748 mmHg 73%
    06:00 +14°C° 0 mm 0 mps 748 mmHg 70%
    07:00 +14°C° 0 mm 0 mps 748 mmHg 67%
    08:00 +18°C° 0.1 mm 1 mps 748 mmHg 62%
    09:00 +20°C° 0.1 mm 1 mps 748 mmHg 57%
    10:00 +21°C° 0.1 mm 1 mps 748 mmHg 52%
    11:00 +21°C° 0.2 mm 2 mps 748 mmHg 51%
    12:00 +21°C° 0.2 mm 2 mps 748 mmHg 50%
    13:00 +21°C° 0.2 mm 3 mps 748 mmHg 50%
    14:00 +21°C° 0.2 mm 3 mps 747 mmHg 51%
    15:00 +21°C° 0.2 mm 2 mps 747 mmHg 53%
    16:00 +21°C° 0.2 mm 2 mps 747 mmHg 55%
    17:00 +20°C° 0.2 mm 2 mps 747 mmHg 58%
    18:00 +21°C° 0.2 mm 1 mps 747 mmHg 62%
    19:00 +20°C° 0.2 mm 1 mps 747 mmHg 65%
    20:00 +19°C° 0.2 mm 1 mps 748 mmHg 69%
    21:00 +18°C° 0.2 mm 1 mps 748 mmHg 72%
    22:00 +15°C° 0.2 mm 1 mps 749 mmHg 76%
    23:00 +15°C° 0.3 mm 1 mps 749 mmHg 78%

    9 Junio, Martes

    Tiempo Temperatura Precipitaciones Viento Presión Humedad
    00:00 +14°C° 0.3 mm 1 mps 749 mmHg 80%
    01:00 +14°C° 0.3 mm 1 mps 749 mmHg 82%
    02:00 +14°C° 0.2 mm 1 mps 749 mmHg 82%
    03:00 +14°C° 0.2 mm 1 mps 749 mmHg 83%
    04:00 +14°C° 0.2 mm 1 mps 749 mmHg 83%
    05:00 +14°C° 0.2 mm 1 mps 749 mmHg 83%
    06:00 +14°C° 0.2 mm 0 mps 750 mmHg 82%
    07:00 +14°C° 0.2 mm 0 mps 750 mmHg 82%
    08:00 +18°C° 0.5 mm 1 mps 750 mmHg 76%
    09:00 +19°C° 0.5 mm 1 mps 750 mmHg 70%
    10:00 +21°C° 0.5 mm 1 mps 750 mmHg 64%
    11:00 +22°C° 0.6 mm 1 mps 750 mmHg 61%
    12:00 +22°C° 0.6 mm 1 mps 750 mmHg 58%
    13:00 +23°C° 0.6 mm 1 mps 750 mmHg 55%
    14:00 +23°C° 0.6 mm 1 mps 750 mmHg 55%
    15:00 +23°C° 0.6 mm 2 mps 749 mmHg 55%
    16:00 +23°C° 0.6 mm 2 mps 749 mmHg 56%
    17:00 +21°C° 0.2 mm 2 mps 749 mmHg 60%
    18:00 +22°C° 0.2 mm 1 mps 750 mmHg 65%
    19:00 +21°C° 0.2 mm 1 mps 750 mmHg 70%
    20:00 +20°C° 0.1 mm 1 mps 750 mmHg 73%
    21:00 +18°C° 0.1 mm 1 mps 751 mmHg 76%
    22:00 +16°C° 0.1 mm 1 mps 751 mmHg 79%
    23:00 +16°C° 0 mm 1 mps 751 mmHg 80%
    Mostrar más